Location: *
(45.9594°N, 2.1275°E)
Time: 05:26:48
(UTC+00:00)

Daily predictions for brighter satellites

Satellite Brightness Start Highest point End
(mag) Time Altitude Azimuth Time Altitude Azimuth Time Altitude Azimuth
Unknown 4.4 00:06:57 43° ENE 00:06:57 43° ENE 00:09:54 10° ENE
NOSS 2-2 (E) 3.5 00:07:35 65° NE 00:07:35 65° NE 00:11:20 10° NE
Unknown 4.3 00:08:31 46° ENE 00:08:31 46° ENE 00:11:33 10° ENE
Unknown 4.2 00:10:07 48° ENE 00:10:07 48° ENE 00:13:13 10° ENE
Meteor 1-19 Rocket 4.2 00:05:58 10° NNW 00:11:22 62° W 00:12:12 55° SW
Cosmos 1745 Rocket 4.1 00:07:28 10° NNW 00:13:41 64° W 00:15:12 49° SSW
Unknown 4.0 00:16:31 57° ENE 00:16:31 57° ENE 00:19:53 10° ENE
Unknown 3.9 00:18:06 59° ENE 00:18:06 59° ENE 00:21:33 10° ENE
ALOS 2 4.2 00:17:52 23° W 00:17:52 23° W 00:21:09 10° NW
CZ-4B R/B 4.2 00:13:59 10° NNE 00:18:37 38° E 00:19:08 37° ESE
Unknown 3.9 00:19:43 62° ENE 00:19:43 62° ENE 00:23:14 10° ENE
USA 238 DEB 3.9 00:12:06 10° NW 00:19:08 58° WSW 00:21:02 46° S
USA 238 3.9 00:12:12 10° NW 00:19:14 59° WSW 00:21:09 46° S
Unknown 3.8 00:21:19 65° ENE 00:21:19 65° ENE 00:24:53 10° ENE
Cosmos 2369 Rocket 2.1 00:15:07 10° NNW 00:20:49 70° WSW 00:21:44 59° SSW
ATLAS 2AS CENTAUR R/B 3.0 00:17:20 39° SSW 00:20:49 85° SE 00:28:56 10° NE
Aureole 3 Rocket 4.4 00:17:47 41° SSW 00:20:57 78° W 00:27:17 10° N
Unknown 3.8 00:22:51 68° ENE 00:22:51 68° ENE 00:26:30 10° ENE
Cosmos 783 Rocket 4.3 00:17:36 10° NNW 00:22:49 80° WSW 00:23:29 67° S
Unknown 3.7 00:24:36 71° NE 00:24:36 71° NE 00:28:22 10° ENE
NOSS 2-2 (D) 3.4 00:24:39 72° N 00:24:39 72° N 00:28:34 10° NE
SL-16 R/B 4.0 00:19:40 12° ESE 00:24:34 30° ENE 00:29:51 10° N
Unknown 4.3 00:25:11 42° NNW 00:25:11 42° NNW 00:28:27 10° NE
Unknown 3.7 00:26:06 73° NE 00:26:06 73° NE 00:29:53 10° ENE
Unknown 3.8 00:26:33 63° N 00:26:33 63° N 00:30:05 10° NE
Cosmos 1354 Rocket 4.3 00:25:49 48° WSW 00:27:01 61° WNW 00:32:18 10° NNE
Starlink (trailer) 3.7 00:27:41 75° NE 00:27:41 75° NE 00:31:32 10° ENE
Unknown 3.6 00:29:17 77° NNE 00:29:17 77° NNE 00:33:12 10° ENE
Unknown 3.7 00:29:45 65° N 00:29:45 65° N 00:33:30 10° NE
CZ-4C R/B 3.4 00:29:28 81° SSE 00:29:41 88° ENE 00:34:10 10° NNW
Unknown 3.6 00:30:51 78° NNE 00:30:51 78° NNE 00:34:50 10° ENE
Unknown 3.6 00:31:56 76° NNE 00:31:56 76° NNE 00:35:51 10° ENE
Cosmos 1777 Rocket 4.5 00:31:10 43° SE 00:31:52 45° ESE 00:36:51 10° NNE
Meteor 1-5 Rocket 4.3 00:33:18 53° S 00:34:49 90° W 00:40:50 10° N
Meteor 1-11 Rocket 3.6 00:33:53 56° S 00:35:08 85° E 00:40:56 10° NNE
Unknown 4.0 00:35:17 51° NW 00:35:29 52° NNW 00:39:10 10° NE
FALCON 9 DEB 4.5 00:36:23 36° NW 00:36:47 37° NNW 00:40:02 10° NE
SL-19 R/B 4.4 00:31:40 10° N 00:37:09 63° WNW 00:38:28 48° SW
Unknown 3.7 00:37:13 74° NW 00:37:18 74° NNW 00:41:29 10° ENE
Cosmos 2315 Rocket 4.0 00:36:24 49° S 00:38:18 89° E 00:44:43 10° N
Cosmos 1603 4.0 00:36:51 43° WSW 00:38:33 62° WNW 00:44:09 10° NNE
Unknown 3.7 00:38:50 71° NW 00:39:00 73° NNW 00:43:10 10° ENE
Unknown 3.7 00:40:26 68° WNW 00:40:42 71° NNW 00:44:50 10° ENE
Cosmos 1500 3.3 00:41:42 70° NNW 00:41:42 70° NNW 00:45:12 10° N
Unknown 3.7 00:42:01 66° WNW 00:42:19 70° NNW 00:46:28 10° ENE
Lacrosse 4 Rocket 4.2 00:40:31 10° WNW 00:42:52 14° NW 00:45:12 10° N
Unknown 3.8 00:43:39 60° WNW 00:44:07 66° NNW 00:48:15 10° NE
Unknown 3.8 00:45:14 61° WNW 00:45:40 67° NNW 00:49:49 10° ENE
PSLV R/B 3.4 00:42:37 10° N 00:46:50 72° WNW 00:46:59 71° W
Unknown 3.9 00:46:48 55° WNW 00:47:23 64° NNW 00:51:32 10° NE
Unknown 3.9 00:48:23 56° WNW 00:48:58 64° NNW 00:53:06 10° NE
Unknown 3.9 00:49:59 53° WNW 00:50:39 62° NNW 00:54:47 10° NE
SL-16 R/B 4.3 00:47:58 10° W 00:52:03 20° NW 00:56:08 10° N
Cosmos 1656 Rocket 3.6 00:46:53 10° NNW 00:52:38 89° ENE 00:54:32 44° SSE
Cosmos 1346 Rocket 4.0 00:54:41 31° ESE 00:55:02 32° E 00:58:36 10° NNE
Unknown 4.1 00:54:47 47° WNW 00:55:40 59° NNW 00:59:46 10° NE
Cosmos 2098 Rocket 4.3 00:53:59 10° NNW 00:55:14 20° NW 00:55:14 20° NW
Unknown 4.1 00:56:21 45° WNW 00:57:17 58° NNW 01:01:24 10° NE
IKONOS-2 4.3 00:58:22 75° SW 00:58:35 78° WSW 01:02:52 10° NNW
Cosmos 1975 Rocket 3.0 00:54:32 10° N 00:58:53 75° E 00:59:24 64° SE
SeaSat 1 4.0 00:54:44 10° N 00:58:57 29° NW 01:01:26 19° W
NOSS 2-2 (C) 4.3 00:58:11 35° WNW 00:58:58 39° NW 01:03:03 10° NNE
Unknown 4.1 00:57:59 43° WNW 00:59:01 56° NNW 01:03:07 10° NE
Cosmos 2263 4.5 00:54:55 10° NW 01:00:16 46° WSW 01:00:51 45° SW
Unknown 4.2 00:59:34 41° WNW 01:00:40 55° NNW 01:04:46 10° NE
Resurs 1-4 Rocket 3.2 00:56:21 10° NNE 01:01:09 34° E 01:03:03 26° SE
Cosmos 773 Rocket 3.9 00:56:55 10° NNW 01:02:09 68° WSW 01:03:04 56° SSW
Cosmos 1536 3.1 01:02:17 55° WNW 01:02:17 55° WNW 01:06:16 10° N
Unknown 4.2 01:02:44 38° WNW 01:03:59 53° NNW 01:08:05 10° NE
Cosmos 1943 3.6 01:02:56 37° WSW 01:04:54 54° WNW 01:10:29 10° NNE
NOSS 3-2 (C) 4.2 00:58:01 10° NW 01:05:25 56° WSW 01:08:50 35° S
Unknown 4.3 01:04:20 36° WNW 01:05:41 52° NNW 01:09:48 10° NE
Sich 1 Rocket 3.6 01:06:25 63° SSE 01:07:07 81° E 01:11:44 10° N
Unknown 4.3 01:05:57 35° WNW 01:07:21 51° NNW 01:11:25 10° NE
Unknown 4.3 01:07:32 34° WNW 01:08:57 51° NNW 01:13:02 10° NE
Meteor 1-23 Rocket 4.3 01:03:41 10° NNW 01:09:31 71° W 01:11:13 46° SSW
Cosmos 2184 Rocket 4.0 01:03:36 10° N 01:09:56 76° E 01:12:48 34° SSE
Unknown 4.4 01:09:08 32° WNW 01:10:41 50° NNW 01:14:44 10° NE
UNK 4.4 01:09:55 31° SE 01:11:49 51° ENE 01:16:17 10° N
Unknown 4.3 01:10:40 33° WNW 01:12:09 51° NNW 01:16:13 10° NE
SJ 16-02 3.9 01:12:56 10° ESE 01:14:30 12° E 01:16:04 10° ENE
Unknown 4.4 01:13:49 31° W 01:15:26 49° NNW 01:19:31 10° NE
SAR-Lupe-4 3.6 01:16:09 73° E 01:16:16 74° ENE 01:19:52 10° N
SL-4 R/B 2.1 01:12:09 10° WNW 01:16:55 84° SSW 01:21:03 12° ESE
Unknown 4.4 01:15:26 30° W 01:17:08 48° NNW 01:21:11 10° NE
Unknown 4.5 01:18:38 27° W 01:20:30 47° NNW 01:24:32 10° NE
Cosmos 1943 Rocket 3.6 01:16:24 10° NW 01:20:19 22° W 01:20:19 22° W
ATLAS 5 CENTAUR R/B 4.2 01:19:18 10° WNW 01:21:58 16° W 01:21:58 16° W
NOSS 3-4 (A) 3.6 01:22:55 32° WSW 01:25:47 66° NW 01:32:13 10° NE
NOSS 3-4 (C) 3.6 01:23:02 33° WSW 01:25:52 67° NW 01:32:19 10° NE
Cosmos 1066 Rocket 4.2 01:22:25 10° NNW 01:28:08 69° W 01:30:03 42° SSW
BREEZE-M DEB (TANK) 3.7 01:24:56 10° WNW 01:30:12 41° WSW 01:30:12 41° WSW
Cosmos 1743 2.6 01:34:43 66° S 01:35:13 83° E 01:39:05 10° N
CENTAUR R/B 3.3 01:27:44 10° NW 01:35:34 55° WSW 01:40:53 24° S
ARIANE 5 R/B 4.2 01:32:34 10° NE 01:36:48 25° E 01:40:15 13° SE
Cosmos 2074 Rocket 4.0 01:31:31 10° NNW 01:37:45 67° W 01:40:26 35° SSW
CBERS-1 4.5 01:35:16 10° NNE 01:40:19 54° E 01:42:37 30° SSE
CZ-2D R/B 2.3 01:35:55 10° NNE 01:41:23 73° ESE 01:43:48 34° S
Cosmos 923 Rocket 3.9 01:36:03 10° NNW 01:41:25 84° WSW 01:44:11 30° SSE
Cosmos 1666 3.4 01:43:07 38° W 01:43:26 39° WNW 01:47:05 10° N
Cosmos 2084 4.1 01:39:17 10° NNW 01:43:27 54° NE 01:47:29 10° SE
ATLAS 3B R/B 3.2 01:38:17 10° NW 01:44:19 38° WSW 01:45:58 33° SW
Okean 2 Rocket 3.0 01:44:08 49° SSW 01:45:14 73° W 01:49:41 10° N
H-2A R/B 2.2 01:45:43 46° SSW 01:46:48 60° WSW 01:51:16 10° NNW
Cosmos 1536 Rocket 3.7 01:42:38 10° N 01:47:08 74° E 01:49:09 32° SSE
BREEZE M DEB (TANK) 4.4 01:43:32 13° W 01:48:00 74° N 02:08:50 10° E
Cosmos 1975 2.8 01:48:03 51° S 01:49:02 90° E 01:53:09 10° N
RESURS DK-1 2.5 01:53:09 45° WSW 01:54:14 65° WNW 01:58:24 10° NNE
Nadezhda 1 Rocket 4.0 01:52:01 32° SSW 01:55:15 78° W 02:01:39 10° N
Genesis I 3.5 01:55:09 42° WSW 01:56:18 61° NW 02:00:22 10° NNE
Okean 2 3.7 01:53:22 10° NNW 01:57:25 49° W 01:58:09 43° SW
Cosmos 1340 2.9 01:57:12 47° WSW 01:57:49 54° WNW 02:01:32 10° N
AQUA 3.8 01:53:37 10° NNE 01:58:25 85° E 02:00:28 35° S
MOZ.5/SAFIR/RUBIN 5/SL-8 3.9 01:57:55 38° SSW 01:59:27 57° W 02:04:09 10° NNW
Landsat 5 3.9 01:59:08 20° SSE 02:02:09 66° ENE 02:06:24 10° N
Cosmos 1842 3.2 01:58:55 10° N 02:02:48 81° E 02:04:24 34° SSE
Cosmos 1300 Rocket 3.5 02:01:36 40° SSW 02:03:10 77° W 02:07:38 10° N
Cosmos 1937 Rocket 4.3 02:01:36 22° SSE 02:04:38 44° ESE 02:09:36 10° NNE
Cosmos 1680 Rocket 3.5 01:59:55 10° NNW 02:05:12 69° WSW 02:08:25 24° S
Meteor 2-15 Rocket 4.4 02:02:19 29° SSW 02:05:33 79° W 02:11:40 10° N
CZ-4C R/B 2.9 02:06:33 42° S 02:07:39 82° WSW 02:11:18 10° NNW
SL-16 R/B 2.7 02:04:46 28° SSW 02:07:54 52° W 02:13:56 10° NNW
Atlas Centaur 2 4.0 02:08:24 21° S 02:09:12 21° S 02:14:20 10° SE
Meteor 1-21 4.2 02:06:20 10° NNW 02:12:10 85° W 02:16:30 18° S
ATLAS 2AS CENTAUR R/B 4.3 02:05:28 10° W 02:12:45 35° NNW 02:19:59 10° NNE
Cosmos 1898 Rocket 3.6 02:10:31 27° S 02:13:25 72° ESE 02:18:43 10° NNE
Cosmos 1025 Rocket 3.0 02:10:44 10° NNW 02:15:08 72° W 02:17:18 29° S
Milstar 3 4.0 02:19:34 18° S 02:19:58 18° S 02:24:32 10° SE
SL-08 R/B 3.2 02:17:23 22° S 02:20:28 76° WSW 02:25:18 10° NNW
Cosmos 2151 Rocket 4.0 02:19:46 31° SW 02:21:35 49° WNW 02:26:00 10° N
IRS-1C 4.1 02:18:56 10° NNE 02:24:19 89° ESE 02:27:46 23° SSW
Cosmos 2341 Rocket 4.0 02:19:38 10° N 02:26:02 78° W 02:31:35 14° S
Cosmos 44 3.8 02:24:20 10° NNW 02:28:53 55° NE 02:33:12 10° SE
Cosmos 2154 Rocket 4.4 02:23:15 10° NNW 02:29:16 46° W 02:33:02 22° SSW
IRS-1D 3.5 02:24:46 10° N 02:29:42 68° WNW 02:32:38 24° SSW
Cosmos 2218 Rocket 4.2 02:25:09 10° N 02:31:22 71° E 02:37:37 10° SSE
Cosmos 1346 Rocket 4.4 02:30:12 19° W 02:31:28 21° WNW 02:34:35 10° NNW
CZ-2C R/B 4.2 02:28:20 10° NNE 02:31:45 32° E 02:35:00 11° SSE
Okean 1 Rocket 3.0 02:29:15 24° S 02:31:54 86° W 02:36:25 10° N
COSMOS 2406 3.2 02:35:45 22° SSW 02:39:35 88° ESE 02:45:19 10° NNE
ADEOS II 2.2 02:34:32 10° NNE 02:39:50 78° ESE 02:44:04 16° S
Aureole 2 Rocket 2.6 02:36:54 10° NW 02:39:52 38° WSW 02:40:23 35° SW
TSX-5 3.5 02:36:50 10° NNW 02:40:00 71° ENE 02:43:15 10° SE
Resurs 1-4 Rocket 3.0 02:36:11 10° N 02:40:59 36° WNW 02:44:07 19° WSW
NPP 4.5 02:36:56 10° N 02:41:50 37° WNW 02:45:07 19° WSW
Aureole 3 3.4 02:43:37 18° S 02:45:49 57° E 02:49:26 10° NNE
Cosmos 1378 4.2 02:44:00 10° NNW 02:47:12 28° W 02:48:21 23° WSW
deb Chang Zheng 4 4.3 02:45:11 10° N 02:49:08 37° WNW 02:51:31 20° WSW
Cosmos 1697 Rocket 3.5 02:43:56 10° NNW 02:49:31 55° ENE 02:55:04 10° SE
Cosmos 1833 Rocket 3.4 02:47:10 11° S 02:52:19 49° ESE 02:57:45 10° NE
SJ 16-02 1.3 02:49:33 21° SSW 02:52:25 73° WNW 02:56:50 10° NNE
Okean 1-7 Rocket 3.9 02:49:03 10° N 02:53:37 72° E 02:58:05 10° SSE
Cosmos 990 Rocket 4.2 02:51:53 19° SW 02:55:33 58° WNW 03:00:45 10° NNE
SL-4 R/B 3.5 02:52:48 10° W 02:55:58 20° SW 02:55:58 20° SW
CZ-4B R/B 1.5 02:55:43 20° SSW 02:57:31 46° W 03:00:32 10° NNW
Cosmos 1980 Rocket 3.8 02:53:20 10° NNW 02:58:33 38° NE 03:03:45 10° ESE
SL-8 Rocket 4.1 02:52:47 10° NNW 02:59:01 63° W 03:05:14 10° S
Cosmos 1656 3.7 02:53:30 10° NNW 02:59:14 81° WSW 03:04:55 10° SSE
USA 215 3.5 02:54:08 10° ESE 03:00:40 77° NNE 03:07:12 10° NW
Cosmos 158 Rocket 4.1 02:56:57 10° NNW 03:01:50 50° WSW 03:06:49 10° S
Cosmos 1455 Rocket 3.5 03:05:09 10° S 03:09:27 63° E 03:13:46 10° NNE
BREEZE-M DEB (TANK) 3.9 02:56:49 10° WNW 03:09:48 75° SSW 03:13:23 10° SE
H-2A R/B 4.0 03:06:12 10° NNE 03:10:23 37° E 03:14:34 10° SSE
Cosmos 2278 4.1 03:04:51 10° NNW 03:10:31 70° ENE 03:16:09 10° SE
EXPRESS MD2 3.1 03:08:34 10° WNW 03:11:10 71° NNE 03:15:37 10° ESE
Cosmos 1707 2.9 03:08:57 10° NNW 03:12:42 50° W 03:16:25 10° S
ARIANE 5 R/B 3.0 03:11:12 10° N 03:16:06 46° WNW 03:20:35 12° SW
Meteor 1-28 Rocket 3.3 03:15:27 10° SSE 03:19:14 83° ENE 03:23:01 10° N
Cosmos 1544 4.2 03:16:54 15° SW 03:19:22 30° WNW 03:22:41 10° NNW
CZ-2D R/B 3.8 03:15:31 10° N 03:19:48 55° WNW 03:23:57 11° SSW
Cosmos 2181 Rocket 4.5 03:15:11 13° SW 03:20:35 44° WNW 03:26:29 10° N
CZ-2D R/B 3.9 03:17:06 10° NNW 03:20:52 19° WNW 03:24:38 10° WSW
Spot 2 4.3 03:16:24 10° NNE 03:21:01 88° E 03:25:53 10° SSW
Cosmos 1892 Rocket 3.6 03:17:56 10° NNW 03:22:15 62° W 03:26:34 10° S
PSLV R/B 4.4 03:22:31 15° SW 03:23:31 18° SSW 03:25:32 10° SSE
Cosmos 2298 Rocket 4.1 03:21:48 10° SSW 03:27:01 74° WNW 03:32:21 10° NNE
Meteor 1-15 Rocket 4.3 03:25:17 10° SSW 03:30:54 67° WNW 03:36:30 10° N
Cosmos 1626 Rocket 4.3 03:27:45 10° N 03:32:12 59° E 03:36:36 10° SSE
Cosmos 2082 Rocket 2.4 03:27:15 10° SSW 03:32:49 73° ESE 03:38:27 10° NNE
Cosmos 1689 Rocket 3.3 03:30:29 11° SSW 03:32:51 23° W 03:35:20 10° NW
Cosmos 2150 Rocket 4.1 03:30:05 10° SSW 03:35:15 69° WNW 03:40:24 10° NNE
ADEOS 3.7 03:35:57 10° NNE 03:41:13 87° ESE 03:46:27 10° SSW
SL-27 R/B 3.5 03:39:16 10° S 03:42:27 42° ESE 03:45:44 10° NNE
Cosmos 2369 3.9 03:40:50 10° NW 03:46:16 50° WSW 03:51:41 10° S
Meteor 1-22 Rocket 4.4 03:44:31 10° S 03:49:47 72° E 03:55:06 10° NNE
Cosmos 389 Rocket 2.8 03:46:14 10° N 03:49:52 77° E 03:53:30 10° SSE
Cosmos 372 Rocket 4.1 03:44:58 10° SSW 03:50:01 63° WNW 03:55:09 10° NNE
